FW2710 Weather Reports


Display with metric or nautical units.
time (UTC)temp
F
wind
direction
speed
MPH
gust
MPH
rain 1hr
in
rain 24hr
in
rain mn
in
humidity
%
barometer
mb
20260904022523 81 0 0.0 0.0 0.00 0.00 0.00 82 1014.3
20260904022022 81 0 0.0 0.0 0.00 0.00 0.00 82 1014.4
20260904021552 81 0 0.0 0.0 0.00 0.00 0.00 82 1014.1
20260904021027 81 0 0.0 0.0 0.00 0.00 0.00 82 1014.2
20260904020525 81 0 0.0 0.0 0.00 0.00 0.00 81 1014.2
20260904020047 81 0 0.0 0.0 0.00 0.00 0.00 81 1014.2
20260904015525 81 0 0.0 0.0 0.00 0.00 0.00 80 1014.1
20260904015028 82 0 0.0 0.0 0.00 0.00 0.00 80 1014.0
20260904014549 82 0 0.0 0.0 0.00 0.00 0.00 80 1013.9
20260904014027 82 0 0.0 0.0 0.00 0.00 0.00 79 1013.9
20260904013528 83 0 0.0 0.0 0.00 0.00 0.00 78 1013.9
20260904013043 83 0 0.0 0.0 0.00 0.00 0.00 78 1013.9
20260904012526 83 0 0.0 0.0 0.00 0.00 0.00 77 1013.9
20260904012025 84 0 0.0 0.0 0.00 0.00 0.00 76 1013.8
20260904011547 84 0 0.0 0.0 0.00 0.00 0.00 75 1013.8
20260904011025 85 0 0.0 0.0 0.00 0.00 0.00 73 1013.8
20260904010529 85 0 0.0 0.0 0.00 0.00 0.00 71 1013.7
20260904010050 85 0 0.0 0.0 0.00 0.00 0.00 71 1013.8
20260904005525 85 0 0.0 0.0 0.00 0.00 0.00 71 1013.8
20260904005025 85 0 0.0 0.0 0.00 0.00 0.00 72 1013.7
20260904004550 86 0 0.0 0.0 0.00 0.00 0.00 71 1013.5
20260904004024 86 0 0.0 0.0 0.00 0.00 0.00 70 1013.5
20260904003523 86 0 0.0 0.0 0.00 0.00 0.00 70 1013.4
20260904003048 86 0 0.0 0.0 0.00 0.00 0.00 69 1013.4
20260904002529 87 0 0.0 0.0 0.00 0.00 0.00 69 1013.5
20260904002025 87 0 0.0 0.0 0.00 0.00 0.00 70 1013.4
20260904001545 88 0 0.0 0.0 0.00 0.00 0.00 72 1013.4
20260904001024 88 0 0.0 0.0 0.00 0.00 0.00 72 1013.5
20260904000526 88 0 0.0 0.0 0.00 0.00 0.00 71 1013.5
20260903235529 89 0 0.0 0.0 0.00 0.00 0.00 71 1013.6
20260903235027 89 0 0.0 0.0 0.00 0.00 0.00 71 1013.6
20260903234549 89 0 0.0 0.0 0.00 0.00 0.00 70 1013.7
20260903234027 89 0 0.0 0.0 0.00 0.00 0.00 69 1013.7
20260903233527 89 0 0.0 0.0 0.00 0.00 0.00 70 1014.0
20260903233048 90 0 0.0 0.0 0.00 0.00 0.00 69 1013.9
20260903232527 90 0 0.0 0.0 0.00 0.00 0.00 68 1013.9
20260903232028 90 0 0.0 0.0 0.00 0.00 0.00 69 1013.9
20260903231551 90 0 0.0 0.0 0.00 0.00 0.00 68 1014.0
20260903231027 90 0 0.0 0.0 0.00 0.00 0.00 67 1013.8
20260903230527 90 0 0.0 0.0 0.00 0.00 0.00 65 1013.9
20260903225526 91 0 0.0 0.0 0.00 0.00 0.00 64 1013.9
20260903225027 92 0 0.0 0.0 0.00 0.00 0.00 63 1013.9
20260903224550 92 0 0.0 0.0 0.00 0.00 0.00 62 1013.9
20260903224035 93 0 0.0 0.0 0.00 0.00 0.00 62 1013.9
20260903223526 93 0 0.0 4.0 0.00 0.00 0.00 59 1013.9
20260903223046 93 0 0.0 4.0 0.00 0.00 0.00 58 1013.9
20260903222527 93 0 0.0 4.0 0.00 0.00 0.00 59 1013.9
20260903222027 93 0 0.0 0.0 0.00 0.00 0.00 60 1013.9
20260903221558 93 0 0.0 0.0 0.00 0.00 0.00 61 1013.9
20260903221032 93 0 0.0 4.0 0.00 0.00 0.00 60 1013.8
20260903220526 94 0 0.0 4.0 0.00 0.00 0.00 59 1013.8
20260903220050 94 0 0.0 4.0 0.00 0.00 0.00 58 1013.9
20260903215527 94 0 0.0 4.0 0.00 0.00 0.00 58 1013.9
20260903215027 94 0 0.0 2.0 0.00 0.00 0.00 58 1013.9
20260903214545 94 0 0.0 3.0 0.00 0.00 0.00 58 1013.9
20260903214028 94 0 0.0 7.0 0.00 0.00 0.00 57 1013.9
20260903213527 94 0 1.0 7.0 0.00 0.00 0.00 55 1013.9
20260903213045 94 0 0.0 7.0 0.00 0.00 0.00 56 1013.8
20260903212526 94 0 0.0 6.0 0.00 0.00 0.00 58 1013.9
20260903212028 94 0 0.0 6.0 0.00 0.00 0.00 56 1013.9
20260903211553 94 0 0.0 6.0 0.00 0.00 0.00 58 1013.9
20260903211028 94 0 1.0 6.0 0.00 0.00 0.00 57 1014.0
20260903210527 94 289 0.0 6.0 0.00 0.00 0.00 56 1014.1
20260903210048 94 289 1.0 6.0 0.00 0.00 0.00 56 1014.0
20260903205525 94 0 0.0 6.0 0.00 0.00 0.00 58 1014.0
20260903205029 94 0 0.0 6.0 0.00 0.00 0.00 57 1014.1
20260903204552 94 0 0.0 4.0 0.00 0.00 0.00 56 1014.0
20260903204030 94 0 0.0 4.0 0.00 0.00 0.00 56 1014.1
20260903203528 95 0 0.0 4.0 0.00 0.00 0.00 57 1014.2
20260903203052 95 289 0.0 4.0 0.00 0.00 0.00 56 1014.2
20260903202526 95 0 0.0 3.0 0.00 0.00 0.00 57 1014.1
20260903202032 95 0 0.0 4.0 0.00 0.00 0.00 57 1014.2
20260903201543 95 0 1.0 4.0 0.00 0.00 0.00 59 1014.2
20260903201026 95 0 0.0 0.0 0.00 0.00 0.00 59 1014.2
20260903200527 95 0 0.0 0.0 0.00 0.00 0.00 59 1014.2
20260903200051 95 0 0.0 6.0 0.00 0.00 0.00 57 1014.2
20260903195528 95 0 2.0 6.0 0.00 0.00 0.00 58 1014.2
20260903195026 95 0 0.0 0.0 0.00 0.00 0.00 58 1014.3
20260903194550 95 0 0.0 0.0 0.00 0.00 0.00 59 1014.2
20260903194027 95 0 0.0 0.0 0.00 0.00 0.00 59 1014.3
20260903193527 95 0 0.0 0.0 0.00 0.00 0.00 61 1014.4
20260903193047 94 0 0.0 6.0 0.00 0.00 0.00 57 1014.5
20260903192526 94 0 0.0 6.0 0.00 0.00 0.00 56 1014.5
20260903192026 94 0 0.0 6.0 0.00 0.00 0.00 56 1014.5
20260903191545 94 0 0.0 6.0 0.00 0.00 0.00 54 1014.6
20260903191028 94 0 0.0 4.0 0.00 0.00 0.00 58 1014.6
20260903190525 94 0 0.0 6.0 0.00 0.00 0.00 58 1014.7
20260903190048 94 0 1.0 6.0 0.00 0.00 0.00 57 1014.7
20260903185526 94 0 0.0 6.0 0.00 0.00 0.00 57 1014.7
20260903185029 94 0 0.0 4.0 0.00 0.00 0.00 58 1014.7
20260903184546 94 0 0.0 7.0 0.00 0.00 0.00 59 1014.9
20260903184028 94 0 0.0 7.0 0.00 0.00 0.00 60 1014.9
20260903183526 93 291 0.0 7.0 0.00 0.00 0.00 59 1014.9
20260903183052 93 0 0.0 3.0 0.00 0.00 0.00 60 1015.0
20260903182526 93 0 0.0 7.0 0.00 0.00 0.00 61 1014.9
20260903182026 93 0 0.0 7.0 0.00 0.00 0.00 60 1015.0
20260903181547 93 0 1.0 7.0 0.00 0.00 0.00 60 1015.0
20260903181027 93 0 1.0 7.0 0.00 0.00 0.00 60 1015.1
20260903180527 92 0 0.0 7.0 0.00 0.00 0.00 59 1015.2
20260903180110 92 0 0.0 8.0 0.00 0.00 0.00 62 1015.2
20260903175527 92 0 0.0 8.0 0.00 0.00 0.00 60 1015.3
20260903175116 92 0 0.0 7.0 0.00 0.00 0.00 62 1015.3
20260903174546 92 291 0.0 7.0 0.00 0.00 0.00 63 1015.4
20260903174026 91 291 0.0 7.0 0.00 0.00 0.00 64 1015.4
20260903173528 91 0 0.0 6.0 0.00 0.00 0.00 63 1015.4
20260903173052 91 0 0.0 6.0 0.00 0.00 0.00 64 1015.4
20260903172529 91 0 0.0 6.0 0.00 0.00 0.00 67 1015.3
20260903172027 90 0 0.0 6.0 0.00 0.00 0.00 66 1015.4
20260903171553 90 0 2.0 6.0 0.00 0.00 0.00 65 1015.4
20260903171031 90 0 0.0 6.0 0.00 0.00 0.00 66 1015.4
20260903170528 90 0 0.0 4.0 0.00 0.00 0.00 66 1015.4
20260903170057 90 0 0.0 6.0 0.00 0.00 0.00 65 1015.5
20260903165526 90 0 1.0 6.0 0.00 0.00 0.00 66 1015.6
20260903165026 90 0 0.0 4.0 0.00 0.00 0.00 67 1015.6
20260903164600 89 0 0.0 7.0 0.00 0.00 0.00 66 1015.6
20260903164032 89 291 1.0 7.0 0.00 0.00 0.00 67 1015.7
20260903163527 89 0 0.0 9.0 0.00 0.00 0.00 68 1015.7
20260903163048 89 0 0.0 9.0 0.00 0.00 0.00 67 1015.8
20260903162527 89 291 2.0 9.0 0.00 0.00 0.00 66 1015.8
20260903162027 89 291 0.0 1.0 0.00 0.00 0.00 68 1015.8
20260903161547 88 0 0.0 4.0 0.00 0.00 0.00 69 1015.8
20260903161027 88 0 0.0 4.0 0.00 0.00 0.00 69 1015.8
20260903160528 88 0 0.0 6.0 0.00 0.00 0.00 70 1015.8
20260903160046 87 0 0.0 6.0 0.00 0.00 0.00 70 1015.9
20260903155532 87 0 1.0 6.0 0.00 0.00 0.00 70 1015.9
20260903155030 87 0 0.0 7.0 0.00 0.00 0.00 70 1015.8
20260903154554 87 0 1.0 7.0 0.00 0.00 0.00 70 1015.8
20260903154024 86 0 0.0 7.0 0.00 0.00 0.00 69 1015.8
20260903153528 86 0 0.0 7.0 0.00 0.00 0.00 70 1015.8
20260903153050 86 0 0.0 7.0 0.00 0.00 0.00 69 1015.8
20260903152526 86 0 0.0 7.0 0.00 0.00 0.00 70 1015.8
20260903152026 86 0 0.0 6.0 0.00 0.00 0.00 71 1015.7
20260903151550 86 291 0.0 7.0 0.00 0.00 0.00 71 1015.8
20260903151025 85 0 0.0 7.0 0.00 0.00 0.00 71 1015.7
20260903150524 85 291 1.0 7.0 0.00 0.00 0.00 70 1015.7
20260903150051 85 0 0.0 8.0 0.00 0.00 0.00 71 1015.7
20260903145527 85 0 1.0 8.0 0.00 0.00 0.00 70 1015.6
20260903145028 84 0 0.0 6.0 0.00 0.00 0.00 72 1015.6
20260903144551 84 0 0.0 6.0 0.00 0.00 0.00 72 1015.5
20260903144027 83 290 0.0 6.0 0.00 0.00 0.00 72 1015.5
20260903143527 83 0 1.0 7.0 0.00 0.00 0.00 73 1015.5
20260903143052 83 290 1.0 7.0 0.00 0.00 0.00 73 1015.4
20260903142525 82 290 2.0 7.0 0.00 0.00 0.00 74 1015.4
20260903142025 82 0 1.0 8.0 0.00 0.00 0.00 75 1015.4
20260903141547 81 0 0.0 8.0 0.00 0.00 0.00 76 1015.5
20260903141031 81 290 2.0 9.0 0.00 0.00 0.00 76 1015.4
20260903140528 81 0 1.0 9.0 0.00 0.00 0.00 77 1015.5
20260903140047 81 290 0.0 6.0 0.00 0.00 0.00 77 1015.5
20260903135527 80 0 1.0 6.0 0.00 0.00 0.00 76 1015.5
20260903135028 80 290 1.0 6.0 0.00 0.00 0.00 77 1015.6
20260903134547 80 290 0.0 4.0 0.00 0.00 0.00 79 1015.5
20260903134026 80 0 0.0 3.0 0.00 0.00 0.00 78 1015.6
20260903133524 80 0 0.0 0.0 0.00 0.00 0.00 79 1015.6
20260903133052 79 0 0.0 0.0 0.00 0.00 0.00 79 1015.5
20260903132526 79 0 0.0 3.0 0.00 0.00 0.00 79 1015.5
20260903132023 79 0 0.0 3.0 0.00 0.00 0.00 80 1015.6
20260903131548 79 0 0.0 3.0 0.00 0.00 0.00 79 1015.6
20260903131028 78 0 0.0 2.0 0.00 0.00 0.00 80 1015.6
20260903130527 78 0 0.0 0.0 0.00 0.00 0.00 81 1015.7
20260903130109 78 0 0.0 0.0 0.00 0.00 0.00 81 1015.7
20260903125531 78 0 0.0 0.0 0.00 0.00 0.00 81 1015.6
20260903125027 77 0 0.0 0.0 0.00 0.00 0.00 82 1015.6
20260903124547 77 0 0.0 0.0 0.00 0.00 0.00 82 1015.7
20260903124027 77 0 0.0 0.0 0.00 0.00 0.00 83 1015.7
20260903123527 77 0 0.0 0.0 0.00 0.00 0.00 83 1015.7
20260903123049 76 0 0.0 0.0 0.00 0.00 0.00 83 1015.6
20260903122526 76 0 0.0 0.0 0.00 0.00 0.00 83 1015.6
20260903122026 76 0 0.0 0.0 0.00 0.00 0.00 83 1015.6
20260903121548 76 0 0.0 0.0 0.00 0.00 0.00 83 1015.7
20260903121025 76 0 0.0 0.0 0.00 0.00 0.00 83 1015.7
20260903120525 76 0 0.0 0.0 0.00 0.00 0.00 82 1015.6
20260903120048 76 0 0.0 0.0 0.00 0.00 0.00 82 1015.7
20260903115527 76 0 0.0 0.0 0.00 0.00 0.00 82 1015.7
20260903115028 76 0 0.0 0.0 0.00 0.00 0.00 82 1015.6
20260903114551 75 0 0.0 0.0 0.00 0.00 0.00 82 1015.6
20260903114024 76 0 0.0 0.0 0.00 0.00 0.00 82 1015.7
20260903113526 75 0 0.0 0.0 0.00 0.00 0.00 82 1015.7
20260903113046 75 0 0.0 0.0 0.00 0.00 0.00 82 1015.5
20260903112528 75 0 0.0 0.0 0.00 0.00 0.00 82 1015.5
20260903112030 75 0 0.0 0.0 0.00 0.00 0.00 83 1015.5
20260903111550 75 0 0.0 0.0 0.00 0.00 0.00 83 1015.5
20260903111026 75 0 0.0 0.0 0.00 0.00 0.00 83 1015.4
20260903110530 75 0 0.0 0.0 0.00 0.00 0.00 83 1015.4
20260903110109 75 0 0.0 0.0 0.00 0.00 0.00 83 1015.4
20260903105526 75 0 0.0 0.0 0.00 0.00 0.00 83 1015.4
20260903105023 75 0 0.0 0.0 0.00 0.00 0.00 83 1015.4
20260903104552 75 0 0.0 0.0 0.00 0.00 0.00 83 1015.4
20260903104028 75 0 0.0 0.0 0.00 0.00 0.00 83 1015.4
20260903103529 75 0 0.0 0.0 0.00 0.00 0.00 83 1015.4
20260903103047 75 0 0.0 0.0 0.00 0.00 0.00 83 1015.4
20260903102526 75 0 0.0 0.0 0.00 0.00 0.00 83 1015.3
20260903102026 75 0 0.0 0.0 0.00 0.00 0.00 83 1015.3
20260903101541 75 0 0.0 0.0 0.00 0.00 0.00 83 1015.3
20260903101026 75 0 0.0 0.0 0.00 0.00 0.00 84 1015.3
20260903100527 75 0 0.0 0.0 0.00 0.00 0.00 83 1015.3
20260903100048 75 0 0.0 0.0 0.00 0.00 0.00 83 1015.3
20260903095527 75 0 0.0 0.0 0.00 0.00 0.00 83 1015.3
20260903095025 75 0 0.0 0.0 0.00 0.00 0.00 83 1015.3
20260903094553 75 0 0.0 0.0 0.00 0.00 0.00 83 1015.2
20260903094025 75 0 0.0 0.0 0.00 0.00 0.00 83 1015.2
20260903093526 75 0 0.0 0.0 0.00 0.00 0.00 83 1015.3
20260903093047 76 0 0.0 0.0 0.00 0.00 0.00 83 1015.3
20260903092526 76 0 0.0 0.0 0.00 0.00 0.00 83 1015.3
20260903092030 76 0 0.0 0.0 0.00 0.00 0.00 83 1015.3
20260903091542 76 0 0.0 0.0 0.00 0.00 0.00 83 1015.4
20260903091023 76 0 0.0 0.0 0.00 0.00 0.00 83 1015.3
20260903090527 76 0 0.0 0.0 0.00 0.00 0.00 83 1015.3
20260903090049 76 0 0.0 0.0 0.00 0.00 0.00 83 1015.3
20260903085525 76 0 0.0 0.0 0.00 0.00 0.00 83 1015.4
20260903085024 76 0 0.0 0.0 0.00 0.00 0.00 82 1015.3
20260903084547 76 0 0.0 0.0 0.00 0.00 0.00 82 1015.3
20260903084026 76 0 0.0 0.0 0.00 0.00 0.00 82 1015.3
20260903083526 77 0 0.0 0.0 0.00 0.00 0.00 81 1015.3
20260903083044 77 0 0.0 0.0 0.00 0.00 0.00 81 1015.3
20260903082526 77 0 0.0 0.0 0.00 0.00 0.00 81 1015.3
20260903082024 77 0 0.0 0.0 0.00 0.00 0.00 80 1015.3
20260903081545 77 0 0.0 0.0 0.00 0.00 0.00 80 1015.3
20260903081026 78 0 0.0 0.0 0.00 0.00 0.00 79 1015.3
20260903080527 78 0 0.0 0.0 0.00 0.00 0.00 79 1015.3
20260903080048 78 0 0.0 0.0 0.00 0.00 0.00 79 1015.2
20260903075527 78 0 0.0 0.0 0.00 0.00 0.00 78 1015.2
20260903075025 78 0 0.0 0.0 0.00 0.00 0.00 78 1015.3
20260903074552 79 0 0.0 4.0 0.00 0.00 0.00 78 1015.3
20260903074028 79 0 0.0 4.0 0.00 0.00 0.00 77 1015.3
20260903073524 79 0 0.0 0.0 0.00 0.00 0.00 77 1015.2
20260903073050 79 0 0.0 0.0 0.00 0.00 0.00 77 1015.2
20260903072529 79 0 0.0 0.0 0.00 0.00 0.00 77 1015.2
20260903072032 79 0 0.0 0.0 0.00 0.00 0.00 77 1015.3
20260903071552 79 0 0.0 0.0 0.00 0.00 0.00 76 1015.2
20260903071025 79 0 0.0 4.0 0.00 0.00 0.00 76 1015.2
20260903070526 79 0 0.0 4.0 0.00 0.00 0.00 76 1015.3
20260903070046 79 0 0.0 3.0 0.00 0.00 0.00 76 1015.4
20260903065527 79 290 0.0 3.0 0.00 0.00 0.00 76 1015.3
20260903065025 79 0 0.0 0.0 0.00 0.00 0.00 76 1015.4
20260903064544 79 0 0.0 0.0 0.00 0.00 0.00 76 1015.4
20260903064027 79 0 0.0 4.0 0.00 0.00 0.00 75 1015.5
20260903063530 79 0 0.0 4.0 0.00 0.00 0.00 75 1015.4
20260903063053 79 0 0.0 0.0 0.00 0.00 0.00 75 1015.5
20260903062527 80 0 0.0 0.0 0.00 0.00 0.00 75 1015.4
20260903062027 80 0 0.0 0.0 0.00 0.00 0.00 75 1015.5
20260903061553 80 0 0.0 0.0 0.00 0.00 0.00 75 1015.5
20260903061028 80 0 0.0 0.0 0.00 0.00 0.00 75 1015.3
20260903060525 80 0 0.0 0.0 0.00 0.00 0.00 75 1015.3
20260903060051 79 0 0.0 0.0 0.00 0.00 0.00 75 1015.3
20260903055525 80 0 0.0 0.0 0.00 0.00 0.00 75 1015.3
20260903055026 80 0 0.0 0.0 0.00 0.00 0.00 75 1015.4
20260903054549 80 0 0.0 0.0 0.00 0.00 0.00 75 1015.3
20260903054024 80 0 0.0 0.0 0.00 0.00 0.00 75 1015.4
20260903053524 80 0 0.0 0.0 0.00 0.00 0.00 75 1015.3
20260903053107 79 0 0.0 0.0 0.00 0.00 0.00 75 1015.2
20260903052529 79 0 0.0 0.0 0.00 0.00 0.00 75 1015.2
20260903052025 79 0 0.0 0.0 0.00 0.00 0.00 76 1015.1
20260903051555 79 0 0.0 0.0 0.00 0.00 0.00 76 1015.1
20260903051026 80 0 0.0 0.0 0.00 0.00 0.00 76 1015.0
20260903050532 80 0 0.0 0.0 0.00 0.00 0.00 76 1015.0
20260903050055 80 0 0.0 0.0 0.00 0.00 0.00 75 1015.1
20260903045527 80 0 0.0 0.0 0.00 0.00 0.00 75 1015.1
20260903045025 80 0 0.0 0.0 0.00 0.00 0.00 75 1015.1
20260903044555 80 0 0.0 0.0 0.00 0.00 0.00 75 1015.0
20260903044029 80 0 0.0 0.0 0.00 0.00 0.00 76 1015.1
20260903043523 80 0 0.0 0.0 0.00 0.00 0.00 76 1015.0
20260903043046 80 0 0.0 0.0 0.00 0.00 0.00 76 1015.0
20260903042531 80 0 0.0 0.0 0.00 0.00 0.00 76 1015.0
20260903042025 80 0 0.0 0.0 0.00 0.00 0.00 77 1015.0
20260903041547 80 0 0.0 0.0 0.00 0.00 0.00 77 1015.0
20260903041027 80 0 0.0 0.0 0.00 0.00 0.00 77 1015.0
20260903040526 80 0 0.0 0.0 0.00 0.00 0.00 78 1015.0
20260903040050 80 0 0.0 0.0 0.00 0.00 0.00 78 1015.1
20260903035523 80 0 0.0 0.0 0.00 0.00 0.00 80 1015.0
20260903035026 80 0 0.0 0.0 0.00 0.00 0.00 80 1015.0
20260903034546 80 0 0.0 0.0 0.00 0.00 0.00 81 1015.0
20260903034023 80 0 0.0 0.0 0.00 0.00 0.00 81 1014.9
20260903033522 80 0 0.0 0.0 0.00 0.00 0.00 82 1015.0
20260903033052 81 0 0.0 0.0 0.00 0.00 0.00 82 1014.9
20260903032528 81 0 0.0 0.0 0.00 0.00 0.00 82 1015.0
20260903032025 81 0 0.0 0.0 0.00 0.00 0.00 83 1015.0
20260903031544 81 0 0.0 0.0 0.00 0.00 0.00 82 1014.9
20260903031028 81 0 0.0 0.0 0.00 0.00 0.00 82 1014.9
20260903030528 81 0 0.0 0.0 0.00 0.00 0.00 82 1014.9
20260903030052 81 0 0.0 0.0 0.00 0.00 0.00 82 1014.8
20260903025525 81 0 0.0 0.0 0.00 0.00 0.00 81 1014.9
20260903025026 81 0 0.0 0.0 0.00 0.00 0.00 81 1014.9
20260903024548 81 0 0.0 0.0 0.00 0.00 0.00 81 1014.8
20260903024026 81 0 0.0 0.0 0.00 0.00 0.00 81 1014.7
20260903023528 81 0 0.0 0.0 0.00 0.00 0.00 81 1014.8
20260903023052 82 0 0.0 0.0 0.00 0.00 0.00 80 1014.7